{"data":{"norad_id":58594,"intl_designator":"2023-200F","name":"STARLINK-31075","alt_names":[],"object_type":"PAYLOAD","status":"ACTIVE","operator":null,"country":"US","launch_date":"2023-12-19","launch_site_code":"AFETR","launch_vehicle":null,"mission":null,"orbit_class":"UNKNOWN","rcs_meters":null,"size_class":null,"mass_kg":null,"dimensions":null,"purposes":["comms"],"wikipedia_slug":null,"has_3d_model":false,"image_url":null,"decayed_at":null,"tle_current":{"epoch":"2026-09-20T09:36:28.041120Z","epoch_age_seconds":158509,"freshness":"FRESH","line1":"1 58594U 23200F   26263.40032455  .00001421  00000+0  61159-4 0  9993","line2":"2 58594  43.0006 148.8594 0000872  58.7898 301.3039 15.27582697153399","mean_motion":15.27582697,"eccentricity":8.72e-5,"inclination_deg":43.0006,"raan_deg":148.8594,"arg_perigee_deg":58.7898,"mean_anomaly_deg":301.3039,"bstar":6.1159e-5,"rev_number":15339,"period_min":94.266582282452,"perigee_km":482.44272553993,"apogee_km":483.63931498666,"semimajor_km":6861.1780202633,"source":"CELESTRAK","updated_at":"2026-09-21T09:00:33.917700Z"}}}